Skip Page Navigation
NASA JPL Caltech
NASA Logo - Jet Propulsion Laboratory + View the NASA Portal
+ Near-Earth Object (NEO) Program
Search JPL
JPL Home Earth Solar System Stars & Galaxies Technology
JPL Solar System Dynamics
BODIES ORBITS EPHEMERIDES TOOLS PHYSICAL DATA DISCOVERY FAQ SITE MAP
JPL Small-Body Database Browser
Search: [ help ]  
9621 Michaelpalin (1993 FT26)
Classification: Main-belt Asteroid          SPK-ID: 2009621
Ephemeris | Orbit Diagram | Orbital Elements | Physical Parameters | Discovery Circumstances | Close-Approach Data ]

[ hide orbit diagram ]
Orbit Diagram
Note: Make sure you have Java enabled on your browser to see the applet. This applet is provided as a 3D orbit visualization tool. The applet was implemented using 2-body methods, and hence should not be used for determining accurate long-term trajectories (over several years or decades) or planetary encounter circumstances. For accurate long-term ephemerides, please instead use our Horizons system.

Note: If the applet has stopped working because of a recent Java upgrade, here is a possible workaround.
Orbit Viewer

Additional Notes: the orbits shown in the applet are color coded. The planets are white lines, and the asteroid/comet is a blue line. The bright white line indicates the portion of the orbit that is above the ecliptic plane, and the darker portion is below the ecliptic plane. Likewise for the asteroid/comet orbit, the light blue indicates the portion above the ecliptic plane, and the dark blue the portion below the ecliptic plane.

Orbit Viewer applet originally written and kindly provided by Osamu Ajiki (AstroArts), and further modified by Ron Baalke (JPL).


Orbital Elements at Epoch 2457000.5 (2014-Dec-09.0) TDB
Reference: JPL 8 (heliocentric ecliptic J2000)
 Element Value Uncertainty (1-sigma)   Units 
e .1674511798736618 6.2525e-08  
a 2.263878291664187 1.4952e-08 AU
q 1.884789200634649 1.3878e-07 AU
i 3.681401160513395 6.669e-06 deg
node 230.4115033738578 8.9651e-05 deg
peri 217.8028978500133 9.19e-05 deg
M 216.2575213094473 2.084e-05 deg
tp 2457497.276070874239
(2016-Apr-18.77607087)
7.4671e-05 JED
period 1244.16517054593
3.41
1.2326e-05
3.375e-08
d
yr
n .28935064935312 2.8665e-09 deg/d
Q 2.642967382693724 1.7455e-08 AU
  Orbit Determination Parameters
   # obs. used (total)      824  
   data-arc span      11990 days (32.83 yr)  
   first obs. used      1981-10-24  
   last obs. used      2014-08-22  
   planetary ephem.      DE431  
   SB-pert. ephem.      SB431-BIG16  
   condition code      0  
   fit RMS      .50934  
   data source      ORB  
   producer      Otto Matic  
   solution date      2014-Sep-12 13:55:22  

Additional Information
 Earth MOID = .902401 AU 
 T_jup = 3.596 
[ show covariance matrix ]

Ephemeris | Orbit Diagram | Orbital Elements | Physical Parameters | Discovery Circumstances | Close-Approach Data ]

Physical Parameter Table
Parameter Symbol Value Units Sigma Reference Notes
absolute magnitude H 14.5 mag n/a MPO299032  

9621 Michaelpalin           Discovered 1993 Mar. 21 at the European Southern Observatory in the course of the Uppsala-ESO Survey of Asteroids and Comets.
Michael Palin (b. 1943) is a member of Monty Python's Flying Circus. His sketch with the parrot will never be forgotten. He has also written several books for children and undertaken world travelogues for television.
NOTE: some special characters may not display properly (any characters within {} are an attempt to place the proper accent above a character)
Reference: 20000320/MPCPages.arcLast Updated: 2013-03-29

[ show close-approach data ]
Alternate Designations
 1993 FT26 = 1981 UZ27 = 1988 YH 
Ephemeris | Orbit Diagram | Orbital Elements | Physical Parameters | Discovery Circumstances | Close-Approach Data ]
ABOUT SSD CREDITS/AWARDS PRIVACY/COPYRIGHT GLOSSARY LINKS
FirstGov 2014-Nov-22 16:36 UT
(server date/time)  
NASA Home Page
Site Manager:   Donald K. Yeomans
Webmaster  Alan B. Chamberlin